Location: Griffin Ranch
(33.6186°N, 110.6622°W)
Time: 07:39:21
(UTC-07:00)

Cosmos 1812 - Visible Passes

Search period start: 28 July 2016 00:00
Search period end: 07 August 2016 00:00
Orbit: 521 x 527 km, 82.5° (Epoch: 27 July)

Date Brightness Start Highest point End Pass type
(mag) Time Alt. Az. Time Alt. Az. Time Alt. Az.
28 Jul 4.7 22:12:50 10° N 22:14:33 25° N 22:14:33 25° N visible
29 Jul 4.5 22:00:34 10° N 22:02:27 27° N 22:02:27 27° N visible
30 Jul 4.3 21:48:18 10° N 21:50:23 28° NNE 21:50:23 28° NNE visible
31 Jul 4.1 21:36:03 10° N 21:38:19 30° NNE 21:38:19 30° NNE visible
01 Aug 4.0 21:23:49 10° N 21:26:16 30° NE 21:26:16 30° NE visible
02 Aug 3.9 21:11:35 10° NNE 21:14:15 30° NE 21:14:15 30° NE visible
02 Aug 5.9 22:49:23 10° WNW 22:49:27 10° WNW 22:49:27 10° WNW visible
03 Aug 3.9 20:59:22 10° NNE 21:02:15 28° ENE 21:02:15 28° ENE visible
03 Aug 5.7 22:36:32 10° WNW 22:37:27 12° WNW 22:37:27 12° WNW visible
04 Aug 3.9 20:47:11 10° NNE 20:50:16 26° ENE 20:50:16 26° ENE visible
04 Aug 5.5 22:23:51 10° NW 22:25:28 14° WNW 22:25:28 14° WNW visible
05 Aug 4.0 20:35:01 10° NNE 20:38:08 23° ENE 20:38:19 23° E visible
05 Aug 5.3 22:11:15 10° NW 22:13:31 17° W 22:13:31 17° W visible
06 Aug 4.2 20:22:53 10° NNE 20:25:48 20° ENE 20:26:24 19° E visible
06 Aug 5.0 21:58:43 10° NW 22:01:31 19° W 22:01:36 19° W visible
